Location: Forno Canavese
(45.3500°N, 7.5833°E)
Time: 21:59:32
(UTC+00:00)

Daily predictions for brighter satellites

Satellite Brightness Start Highest point End
(mag) Time Altitude Azimuth Time Altitude Azimuth Time Altitude Azimuth
COSMO-SKYMED 1 2.7 17:46:08 10° NNE 17:50:30 84° WNW 17:54:50 10° SSW
Ariane Rocket 4.5 17:49:29 10° ESE 17:52:55 19° ENE 17:56:22 10° NNE
H-2A R/B 2.6 17:48:59 10° SE 17:53:33 37° ENE 17:58:16 10° N
Cosmos 1689 Rocket 3.5 17:51:25 10° N 17:54:17 44° WNW 17:57:06 10° SSW
SJ 16-02 4.1 17:51:38 10° WSW 17:54:54 20° WNW 17:58:11 10° N
Cosmos 2263 Rocket 3.5 17:52:49 10° SW 17:58:08 44° WNW 18:03:29 10° NNE
USA 116 4.0 17:57:07 10° NNE 18:00:43 45° E 18:04:43 10° S
Cosmos 1939 Rocket 3.7 17:57:23 10° S 18:01:28 59° W 18:05:36 10° NNW
Cosmos 1844 Rocket 2.9 17:57:13 10° S 18:02:31 48° ESE 18:07:54 10° NE
Cosmos 372 Rocket 4.0 17:59:09 10° SSW 18:04:23 86° ESE 18:09:38 10° NNE
Cosmos 1707 2.6 18:01:48 10° N 18:05:38 71° E 18:09:26 10° SSE
Cosmos 1626 4.2 18:06:10 10° NE 18:06:50 10° ENE 18:07:28 10° ENE
NOSS 3-2 (C) 4.2 17:59:50 10° NW 18:07:10 59° NE 18:15:28 10° SE
CZ-2C R/B 3.5 18:05:35 10° SW 18:07:16 13° SSW 18:08:53 10° S
Cosmos 1844 4.0 18:04:37 10° S 18:09:59 45° ESE 18:15:20 10° NE
Cosmos 2034 Rocket 4.3 18:04:23 10° SSE 18:10:23 46° E 18:16:23 10° NNE
ISS -2.6 18:08:00 10° W 18:11:12 39° NNW 18:14:24 10° NE
NOSS 3-4 (A) 4.2 18:06:33 10° S 18:11:27 28° ESE 18:16:33 10° ENE
NOSS 3-4 (C) 4.2 18:06:41 10° S 18:11:33 28° ESE 18:16:38 10° ENE
USA 186 3.4 18:11:04 13° ESE 18:12:37 18° ENE 18:14:56 10° NNE
Meteor 1-12 Rocket 4.3 18:07:53 10° S 18:13:44 71° E 18:19:30 10° NNE
Cosmos 1300 Rocket 3.5 18:14:41 10° S 18:19:04 75° E 18:23:31 10° NNE
Okean 1 Rocket 4.0 18:18:35 10° SSE 18:22:23 28° E 18:26:13 10° NNE
Sich 1 Rocket 4.2 18:18:58 10° SSW 18:23:26 63° W 18:27:59 10° N
Cosmos 2298 Rocket 4.0 18:20:20 10° SSW 18:25:40 88° ESE 18:31:03 10° NNE
CENTAUR R/B 3.2 18:18:17 10° NW 18:26:18 70° NE 18:34:46 11° SE
Resurs 01 Rocket 3.7 18:25:52 11° ENE 18:26:20 11° ENE 18:27:29 10° NE
Cosmos 1833 Rocket 4.1 18:23:10 10° N 18:27:28 22° NE 18:30:11 16° E
CSL-04 Debris 4.2 18:24:13 10° SSE 18:29:36 86° WSW 18:35:02 10° NNW
CSL-04 Rocket 3.7 18:26:06 10° SSE 18:31:33 87° WSW 18:37:07 10° NNW
Cosmos 1766 4.1 18:30:01 10° SSE 18:33:23 28° E 18:36:48 10° NNE
Okean 2 Rocket 3.3 18:29:09 10° SSW 18:33:37 77° W 18:38:07 10° N
ATLAS 2AS CENTAUR R/B 3.3 18:26:28 10° S 18:33:47 43° ESE 18:41:08 10° NE
YAOGAN 1 3.5 18:30:03 10° S 18:34:15 51° W 18:38:29 10° NNW
Cosmos 1025 Rocket 3.2 18:30:39 10° N 18:35:03 80° W 18:39:27 10° S
ATLAS 3B R/B 3.5 18:32:11 10° NNW 18:38:22 35° NE 18:42:34 19° E
SWAS 4.4 18:36:43 10° NNW 18:41:02 88° NE 18:44:39 14° SSE
Abrixas rocket 1.7 18:38:29 10° WNW 18:41:20 81° NNE 18:42:11 40° E
CREW DRAGON DEMO-1 DEB 2.7 18:40:17 10° WNW 18:43:18 73° NNE 18:44:16 39° ESE
Cosmos 1536 Rocket 3.6 18:40:22 10° N 18:44:51 85° W 18:49:20 10° S
Cosmos 1125 Rocket 3.5 18:41:00 10° SSW 18:46:18 84° ESE 18:51:39 10° NNE
SJ-6B 3.2 18:48:31 32° ESE 18:49:32 39° ENE 18:53:05 10° N
CZ-4 R/B 3.7 18:48:23 10° SSW 18:51:59 27° W 18:55:33 10° NW
CZ-2C R/B 4.0 18:48:45 10° S 18:53:58 52° W 18:59:28 10° NNW
USA 238 DEB 4.2 18:48:22 10° NW 18:55:31 64° WSW 19:02:55 10° SSE
USA 238 4.2 18:48:28 10° NW 18:55:38 65° WSW 19:03:03 10° SSE
Cosmos 2285 Rocket 3.9 18:50:42 10° SSW 18:56:59 80° ESE 19:03:22 10° NNE
Cosmos 1674 2.6 18:53:21 10° N 18:57:14 89° W 19:00:17 16° S
Cosmos 2026 Rocket 4.2 18:51:50 10° N 18:58:03 51° ENE 19:02:16 21° SE
Cosmos 1092 Rocket 3.9 18:52:07 10° N 18:58:16 66° E 19:04:17 11° SSE
FREGAT/IRIS 4.1 19:04:41 22° N 19:04:41 22° N 19:05:51 10° N
MOS 1 Rocket 3.5 18:59:10 10° N 19:03:29 63° WNW 19:07:43 10° SSW
TSX-5 3.8 19:04:29 10° SSW 19:08:13 70° ESE 19:13:03 10° NNE
ARGOS 3.5 19:04:12 10° S 19:09:30 64° WSW 19:14:52 10° NNW
Cosmos 1340 Rocket 3.7 19:15:11 33° NE 19:15:11 33° NE 19:17:41 10° NNE
CZ-2C R/B 2.6 19:08:15 10° NNE 19:13:50 72° ESE 19:19:26 10° S
Cosmos 2279 Rocket 4.4 19:12:59 34° ESE 19:14:42 40° E 19:20:29 10° NNE
Cosmos 1733 3.0 19:13:48 31° S 19:15:31 79° E 19:19:21 10° NNE
MOS 1 4.2 19:13:05 22° SSE 19:16:52 81° ENE 19:22:36 10° NNW
Lacrosse 5 rocket 3.3 19:15:59 10° NW 19:19:24 21° NNE 19:20:43 19° NE
Cosmos 2082 Rocket 3.1 19:15:49 10° N 19:20:44 30° NE 19:21:17 29° ENE
BREEZE-M DEB (TANK) 3.9 19:19:54 10° WNW 19:23:23 47° SSW 19:27:36 26° SSE
BREEZE-M R/B 3.8 19:14:02 10° WSW 19:23:35 71° NNW 19:24:25 49° NE
DMSP B5D2-2 3.9 19:18:21 10° NNE 19:23:40 75° ESE 19:28:56 10° S
OBJECT-B 2.4 19:28:48 28° N 19:28:48 28° N 19:30:30 10° N
Cosmos 1805 4.0 19:23:39 10° SSW 19:27:28 52° WNW 19:31:19 10° N
Cosmos 2142 Rocket 4.5 19:24:37 25° SSE 19:28:19 59° E 19:34:26 10° NNE
Ariane Rocket 3.3 19:28:06 22° S 19:31:22 66° WSW 19:36:27 10° NNW
Milstar 3 Cent rocket 4.1 19:28:57 10° SW 19:32:19 15° S 19:32:39 14° S
H-2A R/B 3.9 19:28:45 10° SSW 19:33:03 29° W 19:37:30 10° NW
USA 234 4.3 19:38:14 26° S 19:38:14 26° S 19:41:30 10° SSW
Cosmos 1269 Rocket 4.2 19:32:19 10° NNW 19:37:37 69° WSW 19:39:33 39° S
Cosmos 1626 2.7 19:38:50 10° NNW 19:42:02 54° WNW 19:42:02 54° WNW
MetOp-A 4.4 19:40:20 31° S 19:42:53 67° WSW 19:48:15 10° NNW
Okean 1-7 Rocket 4.2 19:38:23 10° N 19:41:51 45° NNE 19:41:51 45° NNE
USA 186 3.8 19:42:34 25° WSW 19:43:08 26° W 19:45:58 10° NW
COSMOS 2406 3.1 19:41:13 10° NNW 19:46:56 87° WSW 19:47:56 63° SSE
ISS -1.6 19:45:38 10° WNW 19:47:46 24° NNW 19:47:46 24° NNW
Cosmos 2278 Rocket 2.4 19:44:42 10° SSW 19:51:32 54° NE 19:55:58 10° NNE
Lacrosse 4 Rocket 2.8 19:50:31 10° NNW 19:52:52 29° N 19:52:52 29° N
Meteor 1-24 Rocket 4.2 19:53:51 10° NNW 19:59:19 57° W 20:01:37 34° SSW
Cosmos 909 Rocket 4.2 19:53:15 10° NNW 19:59:38 54° NE 19:59:55 54° ENE
Cosmos 2266 Rocket 4.4 19:55:46 10° N 20:00:33 44° NE 20:00:33 44° NE
NOSS 3-4 (A) 3.9 19:56:01 10° SW 20:01:51 58° NW 20:08:09 10° NNE
NOSS 3-4 (C) 3.9 19:56:07 10° SW 20:01:57 59° NW 20:08:15 10° NNE
Resurs 01 Rocket 2.5 20:03:26 45° N 20:03:26 45° N 20:06:34 10° NNW
Meteor 2-19 Rocket 4.2 19:57:25 10° N 20:03:33 82° E 20:03:47 80° ESE
Cosmos 1833 Rocket 2.7 20:06:21 10° NNW 20:11:54 74° W 20:11:54 74° W
Cosmos 2251 Rocket 4.0 20:09:32 10° NNW 20:13:44 54° N 20:13:44 54° N
CENTAUR R/B 4.3 20:09:29 10° NW 20:16:50 36° WSW 20:22:00 20° SSW
ARIANE 5 R/B 4.4 20:20:05 25° N 20:20:05 25° N 20:21:58 10° N
SPOT 3 Rocket 4.1 20:20:50 52° W 20:20:50 52° W 20:25:49 10° NNW
ATLAS 2AS CENTAUR R/B 3.6 20:16:54 10° WSW 20:24:43 57° NW 20:32:26 10° NNE
ATLAS 3B R/B 2.8 20:22:42 10° NW 20:29:33 68° WSW 20:29:50 68° SW
Cosmos 1655 Rocket 4.2 20:32:00 10° NNW 20:37:50 68° WNW 20:37:50 68° WNW
Lacrosse 5 rocket 4.1 20:54:58 10° NW 20:56:20 19° NW 20:56:20 19° NW
Cosmos 2082 Rocket 3.6 20:59:38 10° NW 21:03:08 35° WNW 21:03:08 35° WNW
Terra 4.5 21:21:44 15° N 21:21:44 15° N 21:22:35 10° N
Cosmos 2278 Rocket 4.3 21:33:00 19° WNW 21:34:59 22° NW 21:39:22 10° N
